Location: Bad Rothenbrunn
(47.2167°N, 11.2167°E)
Time: 18:02:22
(UTC+00:00)

Cosmos 2219 Rocket - Pass Details

Date: 03 March 2021
Orbit: 826 x 848 km, 71.0° (Epoch: 19 April)

Event Time Altitude Azimuth Distance (km) Brightness Sun altitude
Rises 17:42:05 0° 148° (SSE) 3,354 5.0 -7.4°
Reaches altitude 10° 17:45:56 10° 122° (ESE) 2,430 4.1 -8.0°
Maximum altitude 17:48:18 13° 96° (E) 2,237 3.7 -8.4°
Drops below altitude 10° 17:50:40 10° 71° (ENE) 2,442 4.0 -8.8°
Enters shadow 17:53:04 - 52° (NE) 2,969 4.6 -9.2°
